Location: GMARS
(34.2910°N, 116.3838°W)
Time: 22:14:04
(UTC-07:00)

Daily predictions for brighter satellites

Satellite Brightness Start Highest point End
(mag) Time Altitude Azimuth Time Altitude Azimuth Time Altitude Azimuth
HJ-1C 4.3 19:23:46 10° SE 19:26:44 29° ENE 19:29:44 10° NNE
Cosmos 2344 4.2 19:21:10 10° SW 19:28:46 64° NW 19:37:02 10° NNE
SJ-6B 2.7 19:27:53 10° SSE 19:31:32 57° ENE 19:35:12 10° N
Yuri Rocket 4.3 19:28:23 10° WSW 19:32:35 31° SSW 19:36:18 10° SE
H-2A R/B 3.8 19:29:54 10° SE 19:33:14 28° ENE 19:36:36 10° NNE
Cosmos 2297 3.8 19:30:24 10° S 19:35:59 61° ESE 19:41:38 10° NNE
SL-27 R/B 2.9 19:32:36 10° NNW 19:36:10 69° WSW 19:39:47 10° S
Resurs 01 Rocket 2.3 19:33:46 10° SE 19:37:43 33° ENE 19:41:40 10° N
ISS -3.8 19:37:19 10° SW 19:40:33 85° NW 19:43:49 10° NE
Timation 1 Rocket 4.5 19:42:22 10° SSW 19:48:22 82° WNW 19:54:24 10° NNE
FengYun 1-2 T 4.2 19:44:21 10° SSE 19:49:52 68° ENE 19:55:27 10° N
FREGAT/IRIS 3.5 19:48:33 10° S 19:51:32 52° W 19:54:32 10° NNW
Cosmos 2082 Rocket 2.7 19:46:20 10° N 19:51:38 39° ENE 19:56:36 11° SE
Cosmos 1605 Rocket 4.1 19:47:05 10° S 19:53:20 88° W 19:59:44 10° N
H-II Stage 2 2.2 19:53:37 10° SW 19:55:24 24° S 19:56:27 17° SE
Cosmos 2100 Rocket 4.4 19:51:44 10° SSE 19:57:30 39° E 20:03:20 10° NNE
Cosmos 1271 Rocket 3.4 19:54:25 10° SSE 19:58:04 34° E 20:01:44 10° NNE
COSMOS 2487 3.2 19:55:26 10° N 19:58:42 33° ENE 20:00:44 19° SE
Cosmos 1758 3.3 19:56:00 10° S 19:59:57 89° W 20:03:57 10° N
Delta 128 4.4 20:01:10 10° WSW 20:05:26 37° S 20:07:59 20° SE
Cosmos 1953 2.4 20:02:11 10° S 20:06:14 82° W 20:10:18 10° N
Cosmos 372 Rocket 3.9 20:02:58 10° SSW 20:08:03 89° WNW 20:13:13 10° NNE
Cosmos 1674 3.1 20:05:22 10° N 20:08:58 41° E 20:11:14 20° SE
Cosmos 1818 3.5 20:05:23 10° NNW 20:10:50 84° ENE 20:15:45 13° SSE
Cosmos 1269 Rocket 4.0 20:05:52 10° N 20:11:07 62° ENE 20:15:54 12° SSE
BREEZE-M DEB (TANK) 2.6 20:08:34 10° WSW 20:11:21 85° NNW 20:19:19 10° ENE
Aurora 2 Rocket 4.4 20:05:04 10° WSW 20:12:14 37° S 20:15:38 20° SE
Resurs 1-3 3.5 20:08:31 10° SSE 20:12:52 74° ENE 20:17:15 10° N
Cosmos 158 Rocket 4.1 20:10:04 10° N 20:15:09 55° ENE 20:18:58 18° SE
Meteor 1-4 Rocket 3.6 20:12:15 10° SSW 20:15:35 46° W 20:18:56 10° N
Cosmos 1408 Rocket 3.6 20:11:49 10° N 20:16:13 56° E 20:19:55 14° SSE
Cosmos 1939 Rocket 4.3 20:18:51 22° ENE 20:18:51 22° ENE 20:21:51 10° NNE
Cosmos 1802 Rocket 4.1 20:15:32 10° SSE 20:21:21 48° E 20:27:13 10° NNE
Helios 1B rocket 2.3 20:18:25 10° NNE 20:22:30 62° E 20:26:33 10° S
USA 215 3.4 20:19:32 10° NE 20:25:46 47° SE 20:31:59 10° SSW
Cosmos 1842 Rocket 4.2 20:27:30 34° E 20:27:30 34° E 20:31:18 10° NNE
Lacrosse 5 rocket 2.2 20:26:19 10° NNW 20:29:43 29° NE 20:29:53 29° NE
Spot 2 Rocket 3.9 20:26:53 10° S 20:31:56 66° WSW 20:37:02 10° NNW
CZ-2D R/B 3.5 20:29:13 12° S 20:32:46 69° W 20:36:38 10° NNW
Cosmos 1076 Rocket 4.2 20:31:36 10° NNW 20:35:44 53° W 20:39:51 10° S
Delta 168 4.3 20:35:21 10° WSW 20:38:12 19° S 20:38:12 19° S
Abrixas 3.3 20:35:43 10° WNW 20:38:13 42° WSW 20:38:13 42° WSW
Cosmos 2061 Rocket 3.9 20:32:21 10° S 20:38:42 76° E 20:45:08 10° N
Helios 1A 2.8 20:39:34 37° SSE 20:41:10 85° ENE 20:45:22 10° N
Cosmos 1459 Rocket 3.9 20:36:41 10° S 20:42:57 90° E 20:49:10 10° N
Timation 2 Rocket 3.8 20:41:58 10° NNW 20:48:14 87° WSW 20:51:22 30° SSE
Envisat 2.9 20:48:55 49° SE 20:50:08 67° ENE 20:55:11 10° N
Cosmos 2173 Rocket 4.0 20:45:12 10° S 20:51:21 79° W 20:57:37 10° N
Gblst 52 Del rocket 4.1 20:45:18 10° SW 20:51:28 86° SE 20:54:40 27° NE
Cosmos 1733 4.3 20:48:56 10° SSW 20:52:37 44° W 20:56:20 10° N
GPS 2-05 Rocket1 3.4 20:50:46 10° W 20:53:50 58° NW 20:53:50 58° NW
Cosmos 1470 4.1 20:51:12 10° SSW 20:54:57 39° W 20:58:42 10° N
Cosmos 1833 Rocket 3.0 20:49:38 10° NNW 20:55:11 64° WSW 20:58:19 26° S
DASH 3.4 20:43:02 10° W 20:55:41 53° S 20:56:27 47° SSE
Meteor 2-17 Rocket 4.3 20:52:45 10° S 20:58:54 85° E 21:05:04 10° N
SeaSat 1 4.0 20:55:07 10° S 20:59:30 33° WSW 21:03:56 10° NW
ERS-1 Rocket 3.7 21:03:16 39° NE 21:03:16 39° NE 21:06:58 10° N
ATLAS 5 CENTAUR R/B 4.0 21:00:35 10° WSW 21:04:26 25° NW 21:08:33 10° N
H-2A R/B 4.4 21:11:38 10° NNE 21:11:38 10° NNE 21:11:47 10° NNE
OAO 2 Rocket 3.4 21:04:29 10° WSW 21:09:17 68° SSW 21:09:17 68° SSW
Cosmos 1340 Rocket 3.9 21:09:52 10° NNW 21:13:38 41° W 21:13:50 41° WSW
Resurs 01 Rocket 4.3 21:11:17 10° SW 21:14:13 17° W 21:17:11 10° NW
ISS -0.6 21:16:21 10° NW 21:17:27 11° NNW 21:18:08 11° NNW
Cosmos 2016 Rocket 4.4 21:17:28 10° SSW 21:23:36 60° W 21:29:40 10° N
Cosmos 1725 Rocket 4.0 21:31:58 55° SSW 21:33:18 74° W 21:39:31 10° N
Cosmos 2082 Rocket 4.2 21:31:00 10° NW 21:35:24 24° W 21:38:32 15° SW
Tsikada Rocket 4.5 21:53:35 10° NNW 21:58:55 56° WNW 21:58:55 56° WNW
USA 215 4.2 22:02:34 10° NNE 22:08:40 44° NW 22:14:45 10° WSW
Cosmos 2369 Rocket 4.3 22:25:00 21° NNW 22:25:00 21° NNW 22:27:11 10° N
